Content
SEND FEEDBACK

Daily
Averages
Monthly
Summary
United States of America

RIMROCK, ARIZONA


Home > North America > United States > Arizona
Elevation: 3830 feet     Latitude: 34 40N     Longitude: 111 43W

WEATHER
 
SELECT A DAY
Number of Records: 130,443;   Date Range: 1/4/95 - 8/12/14
 
SHARE

PRINT THIS DATA

[ ← Previous Day ]
WEATHER ALMANAC - JANUARY 18, 2014
[ Next Day → ]
[ °C ]   °F
Weather ElementAverageHighLow
Barometer30.21 in30.27 in (10:15 am)30.18 in (2:35 pm)
Wind Speed9.3 mph17.3 mph (7:55 pm)
Wind Gust23 mph (10:15 pm)
Weather ElementAverage
Visibility10 mi
Wind DirectionENE (81.1 °)

Weather ElementTotal
Precipitation---
Heating Degree Days65 (Base 65)
Averaged from 71 records on January 18, 2014
WEATHER CONDITIONS BREAKOUT
WIND DIRECTION BREAKOUT
WEATHER BY HOUR - JANUARY 18, 2014
[ °C ]   °F
Local TimeTemperatureDewpointHumidityBarometerVisibilityWind DirectionWind SpeedGust SpeedPrecipitationEventsConditions
12:35 AM0.0 °F0.0 °F30.20 in10.0 miNE (40°)10.4 mphClear
12:55 AM0.0 °F0.0 °F30.20 in10.0 miNE (40°)9.2 mphClear
1:15 AM0.0 °F0.0 °F30.20 in10.0 miNE (40°)12.7 mphClear
1:35 AM0.0 °F0.0 °F30.20 in10.0 miNE (40°)12.7 mphClear
1:55 AM0.0 °F0.0 °F30.20 in10.0 miNE (50°)10.4 mphClear
2:15 AM0.0 °F0.0 °F30.21 in10.0 miENE (70°)11.5 mphClear
2:35 AM0.0 °F0.0 °F30.21 in10.0 miENE (60°)9.2 mphClear
2:55 AM0.0 °F0.0 °F30.21 in10.0 miNE (50°)10.4 mph17.3 mphClear
3:15 AM0.0 °F0.0 °F30.21 in10.0 miNE (40°)13.8 mphClear
3:35 AM0.0 °F0.0 °F30.21 in10.0 miENE (60°)11.5 mphClear
3:55 AM0.0 °F0.0 °F30.20 in10.0 miNE (50°)12.7 mphClear
4:15 AM0.0 °F0.0 °F30.20 in10.0 miNE (50°)10.4 mphClear
4:35 AM0.0 °F0.0 °F30.20 in10.0 miNE (40°)10.4 mphClear
4:55 AM0.0 °F0.0 °F30.20 in10.0 miNE (50°)11.5 mphClear
5:15 AM0.0 °F0.0 °F30.20 in10.0 miNE (50°)13.8 mph19.6 mphClear
5:35 AM0.0 °F0.0 °F30.20 in10.0 miNE (50°)9.2 mphClear
5:55 AM0.0 °F0.0 °F30.20 in10.0 miNE (40°)11.5 mphClear
6:15 AM0.0 °F0.0 °F30.20 in10.0 miNE (40°)13.8 mphClear
6:35 AM0.0 °F0.0 °F30.21 in10.0 miNE (40°)10.4 mphClear
6:55 AM0.0 °F0.0 °F30.21 in10.0 miENE (60°)10.4 mphClear
7:15 AM0.0 °F0.0 °F30.21 in10.0 miENE (60°)10.4 mphClear
7:35 AM0.0 °F0.0 °F30.22 in10.0 miNE (50°)9.2 mph16.1 mphClear
7:55 AM0.0 °F0.0 °F30.22 in10.0 miENE (70°)9.2 mphClear
8:15 AM0.0 °F0.0 °F30.23 in10.0 miEast (90°)9.2 mphClear
8:35 AM0.0 °F0.0 °F30.23 in10.0 miEast (100°)4.6 mphClear
8:55 AM0.0 °F0.0 °FNorth
9:15 AM0.0 °F0.0 °F30.24 in10.0 miNE (40°)4.6 mphClear
9:35 AM0.0 °F0.0 °F30.25 in10.0 miSSE (160°)3.5 mphClear
9:55 AM0.0 °F0.0 °F30.26 in10.0 miSSE (160°)3.5 mphClear
10:15 AM0.0 °F0.0 °F30.27 in10.0 miCalmClear
10:35 AM0.0 °F0.0 °F30.27 in10.0 miSouth (170°)3.5 mphClear
10:55 AM0.0 °F0.0 °FNorth
11:15 AM0.0 °F0.0 °FNorth
11:35 AM0.0 °F0.0 °FNorth
11:55 AM0.0 °F0.0 °F30.24 in10.0 miWest (260°)3.5 mph
12:15 PM0.0 °F0.0 °F30.24 in10.0 miCalmClear
12:35 PM0.0 °F0.0 °F30.22 in10.0 miWNW (290°)3.5 mphClear
12:55 PM0.0 °F0.0 °F30.21 in10.0 miWest (270°)3.5 mphClear
1:15 PM0.0 °F0.0 °F30.20 in10.0 miWSW (250°)4.6 mphClear
1:35 PM0.0 °F0.0 °F30.19 in10.0 miSouth (190°)5.8 mphClear
1:55 PM0.0 °F0.0 °F30.19 in10.0 miSW (220°)4.6 mphClear
2:15 PM0.0 °F0.0 °F30.19 in10.0 miWest (280°)4.6 mphClear
2:35 PM0.0 °F0.0 °F30.18 in10.0 miCalmClear
2:55 PM0.0 °F0.0 °F30.18 in10.0 miSouth (190°)3.5 mphClear
3:15 PM0.0 °F0.0 °F30.18 in10.0 miSSW (200°)4.6 mphClear
3:35 PM0.0 °F0.0 °F30.18 in10.0 miWSW (250°)3.5 mphClear
3:55 PM0.0 °F0.0 °F30.18 in10.0 miSouth (180°)3.5 mphClear
4:15 PM0.0 °F0.0 °F30.19 in10.0 miSouth (180°)4.6 mphClear
4:35 PM0.0 °F0.0 °F30.18 in10.0 miCalmClear
4:55 PM0.0 °F0.0 °F30.18 in10.0 miCalmClear
5:15 PM0.0 °F0.0 °F30.19 in10.0 miENE (70°)6.9 mphClear
5:35 PM0.0 °F0.0 °F30.19 in10.0 miEast (80°)6.9 mphClear
5:55 PM0.0 °F0.0 °F30.19 in10.0 miENE (60°)11.5 mphClear
6:15 PM0.0 °F0.0 °F30.20 in10.0 miENE (60°)11.5 mphClear
6:35 PM0.0 °F0.0 °F30.20 in10.0 miENE (60°)12.7 mph17.3 mphClear
6:55 PM0.0 °F0.0 °F30.20 in10.0 miNE (50°)13.8 mph18.4 mphClear
7:15 PM0.0 °F0.0 °F30.21 in10.0 miNE (50°)12.7 mph18.4 mphClear
7:35 PM0.0 °F0.0 °F30.21 in10.0 miNE (50°)13.8 mphClear
7:55 PM0.0 °F0.0 °F30.21 in10.0 miNE (40°)17.3 mph21.9 mphClear
8:15 PM0.0 °F0.0 °F30.21 in10.0 miNE (50°)16.1 mph20.7 mphClear
8:35 PM0.0 °F0.0 °F30.22 in10.0 miNE (50°)16.1 mphClear
8:55 PM0.0 °F0.0 °F30.22 in10.0 miNE (50°)17.3 mphClear
9:15 PM0.0 °F0.0 °F30.23 in10.0 miNE (50°)15.0 mph20.7 mphClear
9:35 PM0.0 °F0.0 °F30.24 in10.0 miNE (50°)13.8 mph20.7 mphClear
9:55 PM0.0 °F0.0 °F30.24 in10.0 miNE (50°)15.0 mphClear
10:15 PM0.0 °F0.0 °F30.24 in10.0 miNE (50°)17.3 mph23.0 mphClear
10:35 PM0.0 °F0.0 °F30.24 in10.0 miENE (60°)15.0 mphClear
10:55 PM0.0 °F0.0 °F30.25 in10.0 miENE (60°)13.8 mph19.6 mphClear
11:15 PM0.0 °F0.0 °F30.25 in10.0 miNE (50°)12.7 mph18.4 mphClear
11:35 PM0.0 °F0.0 °F30.25 in10.0 miNE (50°)13.8 mphClear
11:55 PM0.0 °F0.0 °F30.25 in10.0 miNE (50°)15.0 mph19.6 mphClear
Hourly data recorded from KSEZ, located miles away from Rimrock, Arizona







STORIES FROM OUR PARTNERS